TimeEDT,TemperatureF,Dew PointF,Humidity,Sea Level PressureIn,VisibilityMPH,Wind Direction,Wind SpeedMPH,Gust SpeedMPH,PrecipitationIn,Events,Conditions,WindDirDegrees,DateUTC
12:15 AM,53.6,46.4,77,29.89,10.0,North,4.6,-,N/A,,Clear,350,2012-10-30 04:15:00
12:35 AM,55.4,44.6,67,29.89,10.0,North,4.6,-,N/A,,Clear,350,2012-10-30 04:35:00
12:55 AM,55.4,42.8,63,29.89,10.0,North,5.8,-,N/A,,Clear,350,2012-10-30 04:55:00
1:15 AM,55.4,41.0,58,29.88,10.0,North,6.9,-,N/A,,Clear,350,2012-10-30 05:15:00
1:35 AM,55.4,41.0,58,29.88,10.0,North,4.6,-,N/A,,Clear,350,2012-10-30 05:35:00
1:55 AM,53.6,41.0,62,29.88,10.0,NNW,3.5,-,N/A,,Clear,340,2012-10-30 05:55:00
2:15 AM,53.6,39.2,58,29.87,10.0,NNW,4.6,-,N/A,,Clear,340,2012-10-30 06:15:00
2:35 AM,53.6,39.2,58,29.87,10.0,North,4.6,-,N/A,,Clear,350,2012-10-30 06:35:00
2:55 AM,51.8,39.2,62,29.87,10.0,North,4.6,-,N/A,,Clear,350,2012-10-30 06:55:00
3:35 AM,51.8,39.2,62,29.88,10.0,Calm,Calm,-,N/A,,Clear,0,2012-10-30 07:35:00
3:55 AM,50.0,39.2,66,29.88,10.0,Calm,Calm,-,N/A,,Scattered Clouds,0,2012-10-30 07:55:00
4:15 AM,50.0,39.2,66,29.88,10.0,Calm,Calm,-,N/A,,Scattered Clouds,0,2012-10-30 08:15:00
4:55 AM,50.0,39.2,66,29.89,10.0,Calm,Calm,-,N/A,,Scattered Clouds,0,2012-10-30 08:55:00
5:15 AM,50.0,39.2,66,29.90,10.0,Calm,Calm,-,N/A,,Scattered Clouds,0,2012-10-30 09:15:00
5:35 AM,50.0,37.4,62,29.91,10.0,Calm,Calm,-,N/A,,Scattered Clouds,0,2012-10-30 09:35:00
5:55 AM,50.0,37.4,62,29.91,10.0,Calm,Calm,-,N/A,,Scattered Clouds,0,2012-10-30 09:55:00
6:15 AM,50.0,35.6,58,29.91,10.0,Calm,Calm,-,N/A,,Clear,0,2012-10-30 10:15:00
6:35 AM,50.0,35.6,58,29.91,10.0,Calm,Calm,-,N/A,,Clear,0,2012-10-30 10:35:00
6:55 AM,48.2,37.4,66,29.92,10.0,Calm,Calm,-,N/A,,Clear,0,2012-10-30 10:55:00
7:15 AM,48.2,35.6,62,29.93,10.0,Calm,Calm,-,N/A,,Clear,0,2012-10-30 11:15:00
7:35 AM,48.2,37.4,66,29.93,10.0,Calm,Calm,-,N/A,,Clear,0,2012-10-30 11:35:00
8:15 AM,46.4,39.2,76,29.93,10.0,Calm,Calm,-,N/A,,Clear,0,2012-10-30 12:15:00
8:35 AM,51.8,37.4,58,29.94,10.0,Calm,Calm,-,N/A,,Clear,0,2012-10-30 12:35:00
8:55 AM,53.6,35.6,51,29.95,10.0,Calm,Calm,-,N/A,,Clear,0,2012-10-30 12:55:00
9:35 AM,57.2,41.0,55,29.95,10.0,West,5.8,-,N/A,,Clear,260,2012-10-30 13:35:00
9:55 AM,59.0,42.8,55,29.95,10.0,WSW,5.8,-,N/A,,Clear,250,2012-10-30 13:55:00
10:15 AM,62.6,42.8,48,29.95,10.0,West,10.4,-,N/A,,Clear,270,2012-10-30 14:15:00
10:35 AM,64.4,41.0,42,29.95,10.0,WNW,19.6,24.2,N/A,,Clear,300,2012-10-30 14:35:00
10:55 AM,64.4,41.0,42,29.95,10.0,NW,16.1,23.0,N/A,,Clear,310,2012-10-30 14:55:00
11:15 AM,66.2,37.4,35,29.96,10.0,WNW,17.3,25.3,N/A,,Clear,300,2012-10-30 15:15:00
11:35 AM,66.2,35.6,32,29.96,10.0,WNW,15.0,26.5,N/A,,Clear,290,2012-10-30 15:35:00
11:55 AM,66.2,35.6,32,29.96,10.0,West,20.7,26.5,N/A,,Clear,280,2012-10-30 15:55:00
12:15 PM,66.2,35.6,32,29.95,10.0,WNW,19.6,27.6,N/A,,Clear,290,2012-10-30 16:15:00
12:35 PM,66.2,33.8,30,29.95,10.0,WNW,19.6,27.6,N/A,,Clear,290,2012-10-30 16:35:00
12:55 PM,66.2,33.8,30,29.94,10.0,WNW,21.9,29.9,N/A,,Clear,300,2012-10-30 16:55:00
1:15 PM,66.2,35.6,32,29.94,10.0,NW,20.7,32.2,N/A,,Clear,310,2012-10-30 17:15:00
1:35 PM,68.0,33.8,28,29.93,10.0,WNW,19.6,26.5,N/A,,Clear,300,2012-10-30 17:35:00
1:55 PM,68.0,35.6,30,29.92,10.0,West,19.6,28.8,N/A,,Clear,280,2012-10-30 17:55:00
2:15 PM,68.0,37.4,33,29.92,10.0,WNW,15.0,21.9,N/A,,Clear,300,2012-10-30 18:15:00
2:35 PM,68.0,35.6,30,29.92,10.0,WNW,17.3,26.5,N/A,,Clear,300,2012-10-30 18:35:00
2:55 PM,68.0,35.6,30,29.92,10.0,West,13.8,24.2,N/A,,Clear,280,2012-10-30 18:55:00
3:15 PM,68.0,33.8,28,29.92,10.0,West,18.4,26.5,N/A,,Clear,280,2012-10-30 19:15:00
3:35 PM,68.0,33.8,28,29.92,10.0,West,16.1,24.2,N/A,,Clear,270,2012-10-30 19:35:00
3:55 PM,68.0,33.8,28,29.92,10.0,WNW,16.1,20.7,N/A,,Clear,290,2012-10-30 19:55:00
4:15 PM,68.0,33.8,28,29.91,10.0,West,17.3,24.2,N/A,,Clear,270,2012-10-30 20:15:00
4:35 PM,68.0,35.6,30,29.91,10.0,WNW,16.1,24.2,N/A,,Clear,290,2012-10-30 20:35:00
4:55 PM,68.0,35.6,30,29.91,10.0,West,13.8,21.9,N/A,,Clear,280,2012-10-30 20:55:00
5:15 PM,68.0,37.4,33,29.91,10.0,West,15.0,21.9,N/A,,Clear,270,2012-10-30 21:15:00
5:35 PM,66.2,37.4,35,29.91,10.0,West,16.1,21.9,N/A,,Clear,280,2012-10-30 21:35:00
5:55 PM,66.2,39.2,37,29.91,10.0,West,11.5,19.6,N/A,,Clear,270,2012-10-30 21:55:00
6:15 PM,64.4,41.0,42,29.91,10.0,WNW,10.4,20.7,N/A,,Clear,290,2012-10-30 22:15:00
6:35 PM,62.6,42.8,48,29.92,10.0,West,11.5,17.3,N/A,,Clear,280,2012-10-30 22:35:00
6:55 PM,62.6,44.6,52,29.92,10.0,West,8.1,-,N/A,,Clear,280,2012-10-30 22:55:00
7:15 PM,62.6,44.6,52,29.93,10.0,West,9.2,-,N/A,,Clear,280,2012-10-30 23:15:00
7:35 PM,60.8,46.4,59,29.93,10.0,West,8.1,-,N/A,,Clear,270,2012-10-30 23:35:00
7:55 PM,60.8,46.4,59,29.93,10.0,West,5.8,-,N/A,,Clear,280,2012-10-30 23:55:00
8:15 PM,60.8,46.4,59,29.94,10.0,WNW,6.9,-,N/A,,Clear,290,2012-10-31 00:15:00
8:35 PM,60.8,46.4,59,29.95,10.0,West,6.9,-,N/A,,Clear,280,2012-10-31 00:35:00
8:55 PM,59.0,46.4,63,29.96,10.0,West,4.6,-,N/A,,Clear,280,2012-10-31 00:55:00
9:15 PM,59.0,48.2,67,29.96,10.0,West,4.6,-,N/A,,Clear,280,2012-10-31 01:15:00
9:35 PM,59.0,48.2,67,29.97,10.0,West,4.6,-,N/A,,Clear,270,2012-10-31 01:35:00
9:55 PM,59.0,48.2,67,29.98,10.0,West,4.6,-,N/A,,Clear,280,2012-10-31 01:55:00
10:15 PM,57.2,48.2,72,29.98,10.0,West,4.6,-,N/A,,Clear,270,2012-10-31 02:15:00
10:35 PM,57.2,48.2,72,29.99,10.0,West,3.5,-,N/A,,Clear,280,2012-10-31 02:35:00
10:55 PM,59.0,48.2,67,29.99,10.0,West,3.5,-,N/A,,Clear,270,2012-10-31 02:55:00
11:15 PM,55.4,48.2,77,29.99,10.0,Calm,Calm,-,N/A,,Clear,0,2012-10-31 03:15:00
11:35 PM,55.4,50.0,82,29.99,10.0,Calm,Calm,-,N/A,,Clear,0,2012-10-31 03:35:00
11:55 PM,53.6,48.2,82,29.99,10.0,West,3.5,-,N/A,,Clear,270,2012-10-31 03:55:00